Flag for Trinidad and Tobago Weather past 2 weeks in Port of Spain, Trinidad and Tobago

Now
79 °F

Passing clouds.


Feels Like: 82 °F
Forecast: 77 / 85 °F
Wind: No wind

Location: Piarco International Airport - Trinidad

Current Time: Dec 19, 2014 at 9:11:31 PM

Latest Report: Dec 19, 2014 at 8:00 PM


Visibility: N/A

Pressure: 29.89 "Hg

Humidity: 79%

Dew point: 72 °F

Location of Port of SpainLocation

Historic Weather in Port of Spain — Graph

°F

Port of Spain temperature yesterday

Maximum temperature yesterday: 90 °F (at 1:00 PM)
Minimum temperature yesterday: 73 °F (at 2:00 AM)
Average temperature yesterday: 79 °F

Past Weeks' High & Low Weather Summary

 TemperatureHumidityPressure
High91 °F (Dec 6, 12:00 PM)100% (Dec 14, 4:00 AM)30.01 "Hg (Dec 14, 4:00 AM)
Low72 °F (Dec 5, 3:00 AM)49% (Dec 13, 2:00 PM)29.77 "Hg (Dec 6, 4:00 PM)
Average81 °F78%29.88 "Hg
* Reported Dec 4 8:00 PM — Dec 19 8:00 PM, Port of Spain, Weather by CustomWeather, © 2014

Note: Actual official high and low records may vary slightly from our data, if they occured in-between our weather recording intervals... More about our weather records

Advertising

Port of Spain weather history for previous 24 hours

 ConditionsComfort  
Time TempWeatherWind HumidityBarometerVisibility
8:00 PM
Dec 19
79 °FPassing clouds.No wind79%29.89 "HgN/A
7:00 PM79 °FPassing clouds.No wind79%29.89 "HgN/A
6:00 PM81 °FPassing clouds.8 mph70%29.86 "HgN/A
5:00 PM86 °FPassing clouds.8 mph59%29.86 "HgN/A
4:00 PM88 °FPassing clouds.7 mph52%29.83 "HgN/A
3:00 PM90 °FPassing clouds.9 mph52%29.83 "HgN/A
2:00 PM90 °FPassing clouds.13 mph49%29.86 "HgN/A
1:00 PM90 °FScattered clouds.10 mph52%29.89 "HgN/A
12:00 PM90 °FScattered clouds.13 mph52%29.92 "HgN/A
11:00 AM88 °FPassing clouds.7 mph59%29.92 "HgN/A
10:00 AM86 °FPassing clouds.No wind62%29.95 "HgN/A
9:00 AM84 °FPassing clouds.No wind70%29.92 "HgN/A
8:00 AM79 °FPassing clouds.No wind79%29.92 "HgN/A
7:00 AM75 °FPassing clouds.No wind89%29.89 "HgN/A
6:00 AM75 °FPassing clouds.No wind83%29.86 "HgN/A
5:00 AM75 °FPassing clouds.No wind89%29.86 "HgN/A
4:00 AM73 °FPassing clouds.No wind94%29.86 "HgN/A
3:00 AM75 °FPassing clouds.No wind89%29.83 "HgN/A
2:00 AM75 °FPassing clouds.5 mph89%29.86 "HgN/A
1:00 AM75 °FPassing clouds.6 mph89%29.89 "HgN/A
12:00 AM75 °FPassing clouds.No wind83%29.89 "HgN/A
11:00 PM
Dec 18
77 °FPassing clouds.9 mph83%29.89 "HgN/A
10:00 PM77 °FPassing clouds.No wind89%29.92 "HgN/A
9:00 PM77 °FPassing clouds.6 mph89%29.92 "HgN/A
Weather by CustomWeather, © 2014

See weather overviewHow to use our weather pages